SP5IZJ-2 Weather Reports


Display with metric or nautical units.
time (UTC)temp
F
wind
direction
speed
MPH
gust
MPH
rain 1hr
in
rain 24hr
in
rain mn
in
humidity
%
barometer
mb
20260502163944 85 45 0.0 4.0 0.00 0.00 0.00 22 1011.7
20260502163235 86 23 0.0 2.0 0.00 0.00 0.00 22 1011.7
20260502151539 87 23 4.0 9.0 0.00 0.00 0.00 22 1012.5
20260502102849 79 23 3.0 7.0 0.00 0.00 0.00 28 1016.0
20260502091146 77 0 6.0 13.0 0.00 0.00 0.00 30 1016.9
20260502071249 67 0 4.0 8.0 0.00 0.00 0.00 43 1017.3
20260502065152 63 0 4.0 6.0 0.00 0.00 0.00 51 1017.3
20260502063052 61 23 3.0 7.0 0.00 0.00 0.00 49 1017.5
20260502060253 62 0 1.0 4.0 0.00 0.00 0.00 50 1017.2
20260502055555 61 0 1.0 7.0 0.00 0.00 0.00 51 1017.3
20260502054209 61 0 1.0 4.0 0.00 0.00 0.00 52 1017.5
20260502053452 61 338 2.0 5.0 0.00 0.00 0.00 51 1017.5
20260502051352 61 180 0.0 0.0 0.00 0.00 0.00 56 1017.4
20260502045255 58 180 0.0 0.0 0.00 0.00 0.00 61 1017.4
20260502044553 56 180 0.0 0.0 0.00 0.00 0.00 65 1017.4
20260502043153 52 180 0.0 0.0 0.00 0.00 0.00 74 1017.3
20260502040354 39 180 0.0 0.0 0.00 0.00 0.00 82 1017.5
20260502035654 38 180 0.0 0.0 0.00 0.00 0.00 82 1017.5
20260502034954 38 180 0.0 0.0 0.00 0.00 0.00 81 1017.6
20260502034254 37 180 0.0 0.0 0.00 0.00 0.00 81 1017.4
20260502031502 36 180 0.0 0.0 0.00 0.00 0.00 79 1017.3
20260502030755 36 180 0.0 0.0 0.00 0.00 0.00 79 1017.4
20260502023256 36 180 0.0 0.0 0.00 0.00 0.00 79 1017.6
20260502022559 36 180 0.0 0.0 0.00 0.00 0.00 79 1017.6
20260502020457 212 359 0.0 0.0 0.00 0.00 0.00 100
20260502015757 36 180 0.0 0.0 0.00 0.00 0.00 78 1017.7
20260502015106 36 180 0.0 0.0 0.00 0.00 0.00 78 1017.6
20260502014357 36 180 0.0 0.0 0.00 0.00 0.00 77 1017.5
20260502013658 36 180 0.0 0.0 0.00 0.00 0.00 77 1017.5
20260502012258 37 180 0.0 0.0 0.00 0.00 0.00 76 1017.5
20260502011558 37 180 0.0 0.0 0.00 0.00 0.00 76 1017.7
20260502004103 37 180 0.0 0.0 0.00 0.00 0.00 75 1017.8
20260502002708 38 180 0.0 0.0 0.00 0.00 0.00 75 1017.9
20260502002004 38 180 0.0 0.0 0.00 0.00 0.00 75 1017.8
20260502001308 38 180 0.0 0.0 0.00 0.00 0.00 74 1017.9
20260501235202 40 180 0.0 0.0 0.00 0.00 0.00 74 1018.0
20260501234500 40 180 0.0 0.0 0.00 0.00 0.00 74 1017.9
20260501233801 40 180 0.0 0.0 0.00 0.00 0.00 73 1017.8
20260501233101 40 180 0.0 0.0 0.00 0.00 0.00 73 1017.8
20260501232401 40 359 0.0 0.0 0.00 0.00 0.00 73 1017.9
20260501231701 40 180 0.0 0.0 0.00 0.00 0.00 73 1017.8
20260501231001 40 180 0.0 0.0 0.00 0.00 0.00 72 1018.0
20260501230301 40 180 0.0 0.0 0.00 0.00 0.00 71 1017.8
20260501224913 42 180 0.0 0.0 0.00 0.00 0.00 72 1017.7
20260501224202 42 180 0.0 0.0 0.00 0.00 0.00 73 1017.6
20260501222802 41 180 0.0 0.0 0.00 0.00 0.00 68 1017.7
20260501222102 41 180 0.0 0.0 0.00 0.00 0.00 67 1017.9
20260501220003 42 180 0.0 0.0 0.00 0.00 0.00 66 1017.7
20260501212504 44 180 0.0 0.0 0.00 0.00 0.00 64 1017.7
20260501211109 45 180 0.0 0.0 0.00 0.00 0.00 65 1017.8
20260501200106 49 180 0.0 0.0 0.00 0.00 0.00 57 1017.6
20260501194017 50 180 0.0 0.0 0.00 0.00 0.00 53 1017.7
20260501183053 56 359 0.0 0.0 0.00 0.00 0.00 44 1017.1